Location: Newark
(43.0000°N, 1.6781°W)
Time: 10:35:04
(UTC+00:00)

Vanguard 1 Rocket - Pass Details

Date: 14 October 2022
Orbit: 650 x 4225 km, 34.3° (Epoch: 04 December)

Event Time Altitude Azimuth Distance (km) Brightness Sun altitude
Rises 22:29:12 0° 282° (WNW) 7,866 12.6 -50.9°
Reaches altitude 10° 22:35:53 10° 275° (W) 6,347 11.9 -51.5°
Enters shadow 22:46:16 28° 249° (WSW) 4,006 10.5 -52.5°
